Location: Kawakawa
(35.3830°S, 174.0670°E)
Time: 00:31:38
(UTC+13:00)

Altair - Pass Details

Date: 13 December 2019
Orbit: 1502 x 1682 km, 47.2° (Epoch: 19 January)

Event Time Altitude Azimuth Distance (km) Brightness Sun altitude
Rises 16:15:13 0° 236° (WSW) 4,928 10.6 49.7°
Reaches altitude 10° 16:18:23 10° 237° (WSW) 3,950 10.3 49.1°
Maximum altitude 16:28:34 77° 320° (NW) 1,728 8.9 47.0°
Drops below altitude 10° 16:38:40 10° 44° (NE) 3,915 9.4 45.0°
Sets 16:41:47 0° 45° (NE) 4,883 9.8 44.3°
